CW5786 Weather Reports


time (UTC)temp
F
wind
direction
speed
knots
gust
knots
rain 1hr
in
rain 24hr
in
rain mn
in
humidity
%
barometer
mb
20260509112618 49 62 0.0 0.0 0.00 0.00 0.00 100 1014.8
20260509112112 49 62 0.0 0.0 0.00 0.00 0.00 100 1014.7
20260509111615 49 62 0.0 0.0 0.00 0.00 0.00 100 1014.7
20260509111113 49 62 0.0 0.0 0.00 0.00 0.00 100 1014.7
20260509110613 50 62 0.0 0.0 0.00 0.00 0.00 100 1014.7
20260509110115 50 62 0.0 0.0 0.00 0.00 0.00 100 1014.7
20260509105612 50 62 0.0 0.0 0.00 0.00 0.00 100 1014.7
20260509105118 50 63 0.0 0.0 0.00 0.00 0.00 100 1014.6
20260509104612 50 63 0.0 0.0 0.00 0.00 0.00 100 1014.6
20260509104115 50 63 0.0 0.0 0.00 0.00 0.00 100 1014.7
20260509103616 50 62 0.0 0.0 0.00 0.00 0.00 100 1014.5
20260509103112 50 62 0.0 0.0 0.00 0.00 0.00 100 1014.5
20260509102612 51 62 0.0 0.0 0.00 0.00 0.00 100 1014.5
20260509102118 51 62 0.0 0.0 0.00 0.00 0.00 100 1014.6
20260509101613 51 63 0.0 0.0 0.00 0.00 0.00 100 1014.6
20260509101112 51 63 0.0 0.0 0.00 0.00 0.00 100 1014.6
20260509100622 51 63 0.0 0.0 0.00 0.00 0.00 100 1014.7
20260509100113 51 63 0.0 0.0 0.00 0.00 0.00 100 1014.6
20260509095616 51 63 0.0 0.0 0.00 0.00 0.00 100 1014.6
20260509095115 51 63 0.0 0.0 0.00 0.00 0.00 100 1014.6
20260509094615 51 62 0.0 0.0 0.00 0.00 0.00 100 1014.6
20260509094112 51 62 0.0 0.0 0.00 0.00 0.00 100 1014.6
20260509093612 51 62 0.0 0.0 0.00 0.00 0.00 100 1014.7
20260509093121 51 62 0.0 0.0 0.00 0.00 0.00 100 1014.7
20260509092616 51 63 0.0 0.0 0.00 0.00 0.00 100 1014.7
20260509092115 51 63 0.0 0.0 0.00 0.00 0.00 100 1014.7
20260509091612 51 63 0.0 0.0 0.00 0.00 0.00 100 1014.8
20260509091112 51 63 0.0 0.0 0.00 0.00 0.00 100 1014.6
20260509090616 51 63 0.0 0.0 0.00 0.00 0.00 100 1014.7
20260509090113 51 63 0.0 0.0 0.00 0.00 0.00 100 1014.8
20260509085613 51 62 0.0 0.0 0.00 0.00 0.00 100 1014.8
20260509085115 51 63 0.0 0.0 0.00 0.00 0.00 100 1014.8
20260509084612 51 62 0.0 0.0 0.00 0.00 0.00 100 1014.8
20260509084115 51 62 0.0 0.0 0.00 0.00 0.00 100 1014.9
20260509083612 51 62 0.0 0.0 0.00 0.00 0.00 100 1014.9
20260509083118 51 62 0.0 0.0 0.00 0.00 0.00 100 1014.8
20260509082613 51 62 0.0 0.0 0.00 0.00 0.00 100 1014.8
20260509082112 51 62 0.0 0.0 0.00 0.00 0.00 100 1014.9
20260509081616 52 62 0.0 0.0 0.00 0.00 0.00 100 1014.9
20260509081116 52 61 0.0 0.0 0.00 0.00 0.00 100 1014.9
20260509080612 52 61 0.0 0.0 0.00 0.00 0.00 100 1015.0
20260509080112 52 61 0.0 0.0 0.00 0.00 0.00 100 1015.0
20260509075618 52 61 0.0 0.0 0.00 0.00 0.00 100 1015.1
20260509075115 52 62 0.0 0.0 0.00 0.00 0.00 100 1015.1
20260509074615 52 61 0.0 0.0 0.00 0.00 0.00 100 1015.1
20260509074113 52 62 0.0 0.0 0.00 0.00 0.00 100 1015.2
20260509073612 52 62 0.0 0.0 0.00 0.00 0.00 100 1015.2
20260509073115 52 62 0.0 0.9 0.00 0.00 0.00 100 1015.1
20260509072618 52 62 0.0 1.7 0.00 0.00 0.00 100 1015.1
20260509072112 52 62 0.0 1.7 0.00 0.00 0.00 100 1015.1
20260509071618 53 63 0.0 0.0 0.00 0.00 0.00 100 1015.1
20260509071112 53 63 0.0 0.0 0.00 0.00 0.00 100 1015.2
20260509070613 53 63 0.0 0.0 0.00 0.00 0.00 100 1015.2
20260509070115 53 63 0.0 0.0 0.00 0.00 0.00 100 1015.3
20260509065612 53 63 0.0 0.0 0.00 0.00 0.00 100 1015.2
20260509065118 53 63 0.0 3.5 0.00 0.00 0.00 100 1015.2
20260509064615 53 63 0.0 1.7 0.00 0.00 0.00 100 1015.2
20260509064122 53 64 0.0 0.9 0.00 0.00 0.00 100 1015.3
20260509063612 53 64 0.0 0.9 0.00 0.00 0.00 100 1015.2
20260509063115 53 64 0.0 0.9 0.00 0.00 0.00 100 1015.3
20260509062618 53 65 0.0 0.9 0.00 0.00 0.00 100 1015.2
20260509062112 53 65 0.9 1.7 0.00 0.00 0.00 100 1015.4
20260509061612 53 65 0.0 0.9 0.00 0.00 0.00 100 1015.3
20260509061115 53 64 0.0 0.0 0.00 0.00 0.00 100 1015.4
20260509060618 54 64 0.0 0.0 0.00 0.00 0.00 100 1015.3
20260509060115 54 64 0.0 2.6 0.00 0.00 0.00 100 1015.4
20260509055619 54 72 0.0 2.6 0.00 0.00 0.00 100 1015.4
20260509055112 54 74 0.0 1.7 0.00 0.00 0.00 100 1015.3
20260509054615 54 74 0.9 1.7 0.00 0.00 0.00 100 1015.4
20260509054115 54 74 0.0 0.0 0.00 0.00 0.00 100 1015.4
20260509053612 54 75 0.0 0.0 0.00 0.00 0.00 100 1015.5
20260509053115 55 75 0.0 0.0 0.00 0.00 0.00 100 1015.6
20260509052612 55 75 0.0 0.0 0.00 0.00 0.00 100 1015.5
20260509052116 55 76 0.0 0.0 0.00 0.00 0.00 100 1015.4
20260509051621 55 76 0.0 0.0 0.00 0.00 0.00 100 1015.4
20260509051118 55 76 0.0 0.0 0.00 0.00 0.00 100 1015.3
20260509050612 56 76 0.0 0.0 0.00 0.00 0.00 100 1015.4
20260509050115 56 75 0.0 0.9 0.00 0.00 0.00 100 1015.3
20260509045615 56 76 0.0 0.9 0.00 0.00 0.00 100 1015.2
20260509045112 56 76 0.0 1.7 0.00 0.00 0.00 100 1015.2
20260509044616 56 77 0.0 2.6 0.00 0.00 0.00 100 1015.2
20260509044112 57 78 0.0 0.9 0.00 0.00 0.00 100 1015.2
20260509043612 57 78 0.0 1.7 0.00 0.00 0.00 100 1015.2
20260509043112 57 74 0.0 0.9 0.00 0.00 0.00 100 1015.0
20260509042612 57 71 0.0 0.9 0.00 0.00 0.00 100 1015.1
20260509042113 57 71 0.0 0.9 0.00 0.00 0.00 100 1015.1
20260509041615 58 72 0.0 0.9 0.00 0.00 0.00 100 1015.0
20260509041112 58 72 0.0 0.9 0.00 0.00 0.00 100 1015.0
20260509040612 58 71 0.0 1.7 0.00 0.00 0.00 100 1015.0
20260509040115 58 71 0.0 1.7 0.00 0.00 0.00 100 1015.0
20260509035621 59 71 0.0 4.3 0.00 0.00 0.00 3 1014.9
20260509035112 59 70 0.0 3.5 0.00 0.00 0.00 6 1014.9
20260509034613 59 76 0.0 1.7 0.00 0.00 0.00 6 1014.9
20260509034112 59 76 0.0 3.5 0.00 0.00 0.00 7 1014.9
20260509033612 60 77 0.0 0.0 0.00 0.00 0.00 10 1014.8
20260509033118 60 77 0.0 2.6 0.00 0.00 0.00 11 1014.9
20260509032618 60 77 1.7 1.7 0.00 0.00 0.00 15 1014.8
20260509032115 61 78 0.0 0.9 0.00 0.00 0.00 16 1014.8
20260509031618 61 78 0.0 2.6 0.00 0.00 0.00 19 1014.7
20260509031116 61 77 0.0 1.7 0.00 0.00 0.00 21 1014.5
20260509030612 62 80 0.0 2.6 0.00 0.00 0.00 23 1014.5
20260509030115 62 83 0.0 0.0 0.00 0.00 0.00 29 1014.4
20260509025615 62 83 0.0 4.3 0.00 0.00 0.00 32 1014.5
20260509025119 63 90 0.0 6.1 0.00 0.00 0.00 36 1014.5
20260509024615 63 99 0.0 5.2 0.00 0.00 0.00 36 1014.6
20260509024115 64 100 0.0 0.9 0.00 0.00 0.00 36 1014.5
20260509023612 64 103 0.0 1.7 0.00 0.00 0.00 39 1014.5
20260509023120 64 104 0.0 3.5 0.00 0.00 0.00 40 1014.5
20260509022613 64 95 0.0 1.7 0.00 0.00 0.00 40 1014.5
20260509022112 65 98 0.0 0.9 0.00 0.00 0.00 41 1014.4
20260509021615 65 98 0.0 3.5 0.00 0.00 0.00 43 1014.5
20260509021112 65 102 0.0 4.3 0.00 0.00 0.00 45 1014.4
20260509020615 65 107 0.0 4.3 0.00 0.00 0.00 43 1014.3
20260509020115 65 116 0.0 6.1 0.00 0.00 0.00 46 1014.4
20260509015612 66 118 0.9 6.1 0.00 0.00 0.00 47 1014.4
20260509015113 66 110 0.9 6.1 0.00 0.00 0.00 48 1014.4
20260509014615 66 47 1.7 3.5 0.00 0.00 0.00 48 1014.5
20260509014112 67 69 0.0 5.2 0.00 0.00 0.00 50 1014.5
20260509013612 67 67 0.0 5.2 0.00 0.00 0.00 50 1014.5
20260509013115 67 60 6.1 6.1 0.00 0.00 0.00 51 1014.5
20260509012618 68 174 0.9 6.1 0.00 0.00 0.00 51 1014.6
20260509012118 68 119 0.9 4.3 0.00 0.00 0.00 51 1014.6
20260509011616 68 83 0.0 5.2 0.00 0.00 0.00 52 1014.6
20260509011115 68 99 1.7 4.3 0.00 0.00 0.00 52 1014.5
20260509010615 68 114 5.2 6.1 0.00 0.00 0.00 52 1014.6
20260509010112 68 87 1.7 4.3 0.00 0.00 0.00 49 1014.7
20260509005615 68 92 0.9 9.6 0.00 0.00 0.00 51 1014.7
20260509005112 68 71 1.7 3.5 0.00 0.00 0.00 50 1014.6
20260509004619 68 63 0.9 7.0 0.00 0.00 0.00 51 1014.7
20260509004119 68 111 0.0 6.1 0.00 0.00 0.00 52 1014.7
20260509003612 68 68 0.9 5.2 0.00 0.00 0.00 51 1014.8
20260509003112 68 50 0.0 7.0 0.00 0.00 0.00 52 1014.7
20260509002618 68 90 0.9 7.8 0.00 0.00 0.00 52 1014.9
20260509002118 69 107 0.9 7.8 0.00 0.00 0.00 53 1014.8
20260509001612 69 66 0.9 7.8 0.00 0.00 0.00 53 1014.9
20260509001118 69 96 1.7 9.6 0.00 0.00 0.00 53 1014.8
20260509000612 69 89 3.5 5.2 0.00 0.00 0.00 51 1015.0
20260509000118 69 51 0.9 9.6 0.00 0.00 0.00 53 1015.0
20260508235618 69 69 5.2 6.1 0.00 0.00 0.00 52 1015.1
20260508235112 69 142 1.7 6.1 0.00 0.00 0.00 50 1015.1
20260508234618 69 50 5.2 7.0 0.00 0.00 0.00 52 1015.2
20260508234116 69 100 1.7 7.8 0.00 0.00 0.00 53 1015.3
20260508233612 70 113 0.9 7.0 0.00 0.00 0.00 52 1015.3
20260508233112 70 50 0.9 7.0 0.00 0.00 0.00 50 1015.3
20260508232612 69 65 0.0 8.7 0.00 0.00 0.00 50 1015.3
20260508232112 70 66 0.9 11.3 0.00 0.00 0.00 52 1015.3
20260508231612 70 95 3.5 10.4 0.00 0.00 0.00 51 1015.4
20260508231112 70 86 0.0 8.7 0.00 0.00 0.00 50 1015.5
20260508230615 70 55 8.7 7.8 0.00 0.00 0.00 50 1015.4
20260508230112 70 67 0.9 9.6 0.00 0.00 0.00 52 1015.5
20260508225616 71 63 4.3 8.7 0.00 0.00 0.00 52 1015.5
20260508225112 71 134 1.7 9.6 0.00 0.00 0.00 52 1015.6
20260508224618 72 47 2.6 9.6 0.00 0.00 0.00 52 1015.8
20260508224112 72 47 0.0 7.0 0.00 0.00 0.00 52 1015.9
20260508223612 72 127 4.3 7.8 0.00 0.00 0.00 53 1015.8
20260508223112 72 82 2.6 6.1 0.00 0.00 0.00 52 1015.9
20260508222612 72 120 0.9 8.7 0.00 0.00 0.00 51 1016.0
20260508222122 71 153 0.0 7.8 0.00 0.00 0.00 50 1016.1
20260508221613 71 54 3.5 6.1 0.00 0.00 0.00 50 1016.1
20260508221118 70 67 0.0 9.6 0.00 0.00 0.00 50 1016.2
20260508220612 70 88 0.9 7.8 0.00 0.00 0.00 50 1016.3
20260508220115 69 102 0.9 10.4 0.00 0.00 0.00 48 1016.3
20260508215615 70 141 8.7 9.6 0.00 0.00 0.00 48 1016.3
20260508215112 69 142 7.0 9.6 0.00 0.00 0.00 48 1016.5
20260508214612 69 130 3.5 10.4 0.00 0.00 0.00 47 1016.4
20260508214113 69 104 1.7 9.6 0.00 0.00 0.00 48 1016.5
20260508213615 70 126 7.8 10.4 0.00 0.00 0.00 48 1016.5
20260508213118 70 150 0.0 10.4 0.00 0.00 0.00 48 1016.6
20260508212612 70 134 7.0 10.4 0.00 0.00 0.00 47 1016.5
20260508212112 70 126 0.9 10.4 0.00 0.00 0.00 47 1016.5
20260508211612 71 124 9.6 9.6 0.00 0.00 0.00 48 1016.5
20260508211113 71 107 4.3 8.7 0.00 0.00 0.00 50 1016.6
20260508210618 71 120 0.0 10.4 0.00 0.00 0.00 50 1016.5
20260508210112 72 128 4.3 11.3 0.00 0.00 0.00 50 1016.5
20260508205612 71 72 0.0 8.7 0.00 0.00 0.00 47 1016.6
20260508205118 71 149 5.2 7.8 0.00 0.00 0.00 48 1016.7
20260508204612 71 102 0.9 6.1 0.00 0.00 0.00 48 1016.6
20260508204112 70 126 1.7 4.3 0.00 0.00 0.00 51 1016.7
20260508203616 70 134 4.3 9.6 0.00 0.00 0.00 52 1016.9
20260508203115 71 128 5.2 7.0 0.00 0.00 0.00 51 1017.0
20260508202612 70 34 2.6 5.2 0.00 0.00 0.00 48 1017.0
20260508202112 69 132 0.0 7.0 0.00 0.00 0.00 46 1017.1
20260508201612 69 60 2.6 5.2 0.00 0.00 0.00 46 1017.1
20260508201116 68 69 1.7 6.1 0.00 0.00 0.00 45 1017.3
20260508200615 69 126 0.9 7.8 0.00 0.00 0.00 49 1017.4
20260508200118 68 123 0.0 9.6 0.00 0.00 0.00 45 1017.3
20260508195612 68 64 0.0 7.0 0.00 0.00 0.00 43 1017.5
20260508195118 68 61 0.9 4.3 0.00 0.00 0.00 42 1017.6
20260508194615 67 134 0.0 7.0 0.00 0.00 0.00 41 1017.6
20260508194115 67 128 3.5 7.0 0.00 0.00 0.00 40 1017.6
20260508193618 67 132 5.2 4.3 0.00 0.00 0.00 35 1017.6
20260508193112 66 135 1.7 6.1 0.00 0.00 0.00 38 1017.6
20260508192613 66 137 0.9 5.2 0.00 0.00 0.00 38 1017.7
20260508192112 66 140 0.0 4.3 0.00 0.00 0.00 39 1017.7
20260508191615 66 142 0.9 6.1 0.00 0.00 0.00 30 1017.8
20260508191112 65 146 0.0 8.7 0.00 0.00 0.00 33 1017.9
20260508190621 66 144 0.0 6.1 0.00 0.00 0.00 35 1017.9
20260508190119 65 101 0.9 4.3 0.00 0.00 0.00 32 1018.0
20260508185612 64 101 0.0 6.1 0.00 0.00 0.00 22 1018.0
20260508185112 64 44 0.0 5.2 0.00 0.00 0.00 17 1018.1
20260508184615 64 92 0.0 7.0 0.00 0.00 0.00 19 1018.2
20260508184115 63 139 3.5 7.0 0.00 0.00 0.00 22 1018.2
20260508183615 63 157 0.0 7.8 0.00 0.00 0.00 20 1018.2
20260508183118 63 113 0.9 6.1 0.00 0.00 0.00 20 1018.3
20260508182612 63 110 3.5 6.1 0.00 0.00 0.00 22 1018.3
20260508182118 63 128 0.0 7.0 0.00 0.00 0.00 24 1018.3
20260508181618 63 140 0.9 7.0 0.00 0.00 0.00 21 1018.3
20260508181112 63 146 0.0 7.8 0.00 0.00 0.00 22 1018.4
20260508180615 63 148 0.0 5.2 0.00 0.00 0.00 18 1018.3
20260508180112 63 124 1.7 7.0 0.00 0.00 0.00 18 1018.5
20260508175615 63 148 1.7 6.1 0.00 0.00 0.00 15 1018.5
20260508175112 62 114 3.5 7.0 0.00 0.00 0.00 17 1018.5
20260508174618 63 118 5.2 10.4 0.00 0.00 0.00 19 1018.5
20260508174119 63 110 6.1 10.4 0.00 0.00 0.00 21 1018.5
20260508173616 63 121 6.1 9.6 0.00 0.00 0.00 23 1018.5
20260508173112 63 173 0.0 6.1 0.00 0.00 0.00 27 1018.4
20260508172612 63 161 0.0 5.2 0.00 0.00 0.00 20 1018.3
20260508172115 63 150 0.9 5.2 0.00 0.00 0.00 24 1018.2
20260508171612 63 118 0.0 6.1 0.00 0.00 0.00 22 1018.2
20260508171112 63 180 0.9 4.3 0.00 0.00 0.00 31 1018.2
20260508170612 63 182 3.5 5.2 0.00 0.00 0.00 33 1018.3
20260508170112 64 156 0.0 0.0 0.00 0.00 0.00 27 1018.2
20260508165612 63 156 0.0 3.5 0.00 0.00 0.00 24 1018.2
20260508165121 62 157 0.0 3.5 0.00 0.00 0.00 20 1018.3
20260508164612 62 158 0.0 1.7 0.00 0.00 0.00 4 1018.2
20260508164113 61 158 0.0 0.0 0.00 0.00 0.00 100 1018.2
20260508163618 60 158 0.0 0.0 0.00 0.00 0.00 100 1018.2
20260508163115 58 158 0.0 4.3 0.00 0.00 0.00 100 1018.1
20260508162613 58 178 0.9 5.2 0.00 0.00 0.00 100 1018.2
20260508162112 57 243 3.5 4.3 0.00 0.00 0.00 100 1018.1
20260508161615 57 180 0.0 2.6 0.00 0.00 0.00 100 1018.2
20260508161112 56 180 2.6 5.2 0.00 0.00 0.00 100 1018.2
20260508160615 56 91 0.0 0.0 0.00 0.00 0.00 100 1018.1
20260508160118 56 91 0.0 0.0 0.00 0.00 0.00 100 1018.1
20260508155613 56 91 0.0 0.0 0.00 0.00 0.00 100 1018.0
20260508155112 56 91 0.0 0.0 0.00 0.00 0.00 100 1018.1
20260508154612 55 91 0.0 0.0 0.00 0.00 0.00 100 1018.2
20260508154118 55 91 0.0 1.7 0.00 0.00 0.00 100 1018.1
20260508153619 55 91 0.0 0.0 0.00 0.00 0.00 100 1018.1
20260508153113 55 92 0.0 0.0 0.00 0.00 0.00 100 1018.2
20260508152618 54 92 0.0 0.0 0.00 0.00 0.00 100 1018.1
20260508152118 54 92 0.0 0.0 0.00 0.00 0.00 100 1018.1
20260508151618 54 92 0.0 0.0 0.00 0.00 0.00 100 1018.1
20260508151112 54 92 0.0 0.0 0.00 0.00 0.00 100 1018.1
20260508150615 54 91 0.0 0.0 0.00 0.00 0.00 100 1018.1
20260508150112 53 92 0.0 0.0 0.00 0.00 0.00 100 1018.1
20260508145612 53 92 0.0 0.0 0.00 0.00 0.00 100 1018.1
20260508145112 53 91 0.0 0.0 0.00 0.00 0.00 100 1018.0
20260508144613 53 92 0.0 0.0 0.00 0.00 0.00 100 1018.0
20260508144112 53 92 0.0 0.0 0.00 0.00 0.00 100 1018.0
20260508143615 53 91 0.0 0.0 0.00 0.00 0.00 100 1018.0
20260508143115 53 92 0.0 0.0 0.00 0.00 0.00 100 1018.0
20260508142612 53 92 0.0 0.9 0.00 0.00 0.00 100 1017.8
20260508142115 53 92 0.0 0.0 0.00 0.00 0.00 100 1017.8
20260508141612 53 92 0.0 0.0 0.00 0.00 0.00 100 1017.8
20260508141113 53 92 0.0 0.0 0.00 0.00 0.00 100 1017.8
20260508140615 53 91 0.0 0.0 0.00 0.00 0.00 100 1017.7
20260508140115 53 92 0.0 0.0 0.00 0.00 0.00 100 1017.8
20260508135618 53 92 0.0 0.0 0.00 0.00 0.00 100 1017.8
20260508135112 53 92 0.0 0.0 0.00 0.00 0.00 100 1017.8
20260508134615 53 92 0.0 0.0 0.00 0.00 0.00 100 1017.7
20260508134115 53 92 0.0 0.0 0.00 0.00 0.00 100 1017.6
20260508133622 52 92 0.0 0.0 0.00 0.00 0.00 100 1017.6
20260508133112 53 92 0.0 0.0 0.00 0.00 0.00 100 1017.5
20260508132612 53 92 0.0 0.0 0.00 0.00 0.00 100 1017.6
20260508132115 52 92 0.0 0.0 0.00 0.00 0.00 100 1017.5
20260508131612 53 92 0.0 0.0 0.00 0.00 0.00 100 1017.5
20260508131112 53 92 0.0 0.0 0.00 0.00 0.00 100 1017.6
20260508130612 53 92 0.0 0.0 0.00 0.00 0.00 100 1017.6
20260508130119 53 92 0.0 0.0 0.00 0.00 0.00 100 1017.6
20260508125612 53 92 0.0 0.0 0.00 0.00 0.00 100 1017.5
20260508125112 53 92 0.0 0.0 0.00 0.00 0.00 100 1017.5
20260508124612 53 91 0.0 0.0 0.00 0.00 0.00 100 1017.4
20260508124119 53 91 0.0 0.0 0.00 0.00 0.00 100 1017.4
20260508123612 53 92 0.0 0.0 0.00 0.00 0.00 100 1017.4
20260508123112 53 92 0.0 0.0 0.00 0.00 0.00 100 1017.3
20260508122613 53 92 0.0 0.0 0.00 0.00 0.00 100 1017.2
20260508122118 53 92 0.0 0.0 0.00 0.00 0.00 100 1017.4
20260508121612 53 92 0.0 0.0 0.00 0.00 0.00 100 1017.5
20260508121112 53 92 0.0 0.0 0.00 0.00 0.00 100 1017.3
20260508120615 53 92 0.0 0.0 0.00 0.00 0.00 100 1017.3
20260508120112 53 92 0.0 0.0 0.00 0.00 0.00 100 1017.2
20260508115619 53 92 0.0 0.0 0.00 0.00 0.00 100 1017.2
20260508115116 53 92 0.0 0.0 0.00 0.00 0.00 100 1017.3
20260508114612 53 92 0.0 0.0 0.00 0.00 0.00 100 1017.4
20260508114115 53 92 0.0 0.0 0.00 0.00 0.00 100 1017.4
20260508113613 53 92 0.0 0.0 0.00 0.00 0.00 100 1017.4
20260508113115 53 92 0.0 0.9 0.00 0.00 0.00 100 1017.3